x

St. Joseph, Mi (sjom4) Weather Station

4:50am - Fri 28th Aug 2015 All times are CDT. -5 hours from GMT.

  • Wind
  • Air Temp 58°f
  • Sea Pressure 1021mb
  • St. Joseph, Mi
  • St. Joseph, Mi

More Historic Weather Station data

Upgrade to MSW Pro to gain access to the past 30 days of data for over 8000 Wavebouys and Weather Stations around the globe.

Join Pro

Comparision Forecast

View Surf forecast
   
Fri 08/28 4:50am  -  6 mph 1021mb 58f
4:40am 1 6 mph 1021.3mb 58f
4:30am 1 6 mph 1021mb 58f
4:20am  -  7 mph 1020.7mb 58f
4:10am 2 6 mph 1021.3mb 58f
4:01am 1 6 mph 1021.7mb 58f
4:00am 1 5 mph 1021.7mb 58f
3:50am  -  5 mph 1021.3mb 59f
3:40am 2 5 mph 1020.7mb 59f
3:30am 1 5 mph 1021.3mb 59f
3:20am 2 5 mph 1021.7mb 60f
3:10am 2 6 mph 1021.3mb 60f
3:00am 2 6 mph 1021mb 60f
2:50am 2 6 mph 1021.3mb 60f
2:40am 1 6 mph 1021.3mb 60f
2:30am 3 6 mph 1021mb 60f
2:20am 2 5 mph 1021mb 60f
2:10am 2 6 mph 1021.3mb 60f
2:00am 2 6 mph 1021.3mb 60f
1:50am 2 6 mph 1020.7mb 60f
1:40am 2 7 mph 1021.3mb 60f
1:30am 2 6 mph 1021.7mb 60f
1:20am 3 8 mph 1021.3mb 60f
1:00am 2 6 mph 1021.3mb 60f
12:59am 1 6 mph 1021.7mb 59f
12:50am 2 5 mph 1021.7mb 59f
12:40am  -  5 mph 1021.3mb 59f
12:30am  -  5 mph 1020.7mb 59f
12:20am  -  2 mph 1021.7mb 59f
12:10am  -  2 mph 1022mb 59f
12:00am  -  2 mph 1021.3mb 59f
Thu 08/27 11:59pm  -  3 mph 1021mb 59f
11:50pm  -  2 mph 1021.3mb 59f
11:40pm  -  2 mph 1022mb 59f
11:30pm  -  3 mph 1022mb 59f
11:20pm  -  1 mph 1021.3mb 59f
11:10pm  -  1 mph 1021.3mb 59f
11:00pm  -  2 mph 1021.7mb 59f
10:59pm  -  2 mph 1022mb 59f
10:50pm  -  1 mph 1022mb 59f
10:40pm  -  1 mph 1021.7mb 59f
10:30pm  -  2 mph 1021mb 59f
10:20pm  -  2 mph 1021.7mb 59f
10:10pm  -  1 mph 1021.7mb 60f
10:00pm  -  2 mph 1021mb 60f
9:58pm  -  3 mph 1021mb 60f
9:50pm  -  2 mph 1022mb 61f
9:40pm  -  2 mph 1021.7mb 61f
9:30pm 1 3 mph 1021.3mb 61f
9:20pm  -  2 mph 1022mb 61f
9:10pm 1 2 mph 1021.7mb 62f
9:00pm  -  2 mph 1021.3mb 62f
8:58pm 1 2 mph 1021.3mb 62f
8:50pm  -  2 mph 1022mb 62f
8:40pm  -  1 mph 1021.3mb 62f
8:30pm  -  2 mph 1021.7mb 62f
8:20pm  -  1 mph 1021.3mb 62f
8:10pm  -  1 mph 1021.3mb 63f
8:00pm  -  1 mph 1021mb 63f
7:57pm  -  6 mph 1021.7mb 63f
7:40pm 1 3 mph 1021.3mb 64f
7:30pm 1 2 mph 1021.3mb 64f
7:20pm 1 5 mph 1021mb 65f
7:10pm 3 6 mph 1021.7mb 66f
7:00pm 3 6 mph 1021mb 67f
6:57pm 5 6 mph 1021.7mb 67f
6:50pm 3 5 mph 1021.7mb 67f
6:40pm 3 5 mph 1022mb 67f
6:30pm 2 5 mph 1021.7mb 67f
6:20pm 2 3 mph 1021.3mb 68f
6:10pm 3 5 mph 1021.3mb 67f
6:00pm 5 7 mph 1021.7mb 67f
5:57pm 5 7 mph 1021.7mb 68f
5:50pm 3 5 mph 1021.7mb 68f
5:40pm 5 6 mph 1022mb 68f
5:30pm 3 5 mph 1022mb 68f
5:20pm 2 5 mph 1021.7mb 69f
5:10pm 3 6 mph 1021.7mb 68f
5:00pm 3 6 mph 1021.3mb 69f
4:56pm 2 7 mph 1022mb 68f
4:50pm 5 6 mph 1021.3mb 68f
4:40pm 3 6 mph 1021.7mb 68f
4:30pm 5 7 mph 1022mb 68f
4:20pm 3 7 mph 1022.4mb 68f
4:10pm 5 7 mph 1022.4mb 68f
4:00pm 5 6 mph 1022.4mb 68f
3:56pm 3 7 mph 1022.7mb 69f
3:50pm 2 5 mph 1022.4mb 69f
3:40pm 5
mph
1021.7mb 69f
3:30pm 5 6 mph 1021.7mb 70f
3:20pm 5 7 mph 1022mb 69f
3:10pm 5 7 mph 1022.4mb 70f
3:00pm 6 8 mph 1022.7mb 69f
2:50pm 7 9 mph 1022.7mb 70f
2:40pm 6 9 mph 1022.4mb 71f
2:20pm 6 8 mph 1022.7mb 72f
2:10pm 7 8 mph 1023mb 72f
2:00pm 6 8 mph 1023mb 71f
1:55pm 6 9 mph 1022.7mb 70f
1:50pm 6 8 mph 1022.4mb 69f
1:40pm 6 8 mph 1022.7mb 69f
1:30pm 6 7 mph 1023.4mb 70f
1:20pm 5 7 mph 1023mb 71f
1:10pm 3 6 mph 1022.4mb 70f
1:00pm 2 9 mph 1022.4mb 70f
12:55pm 5 9 mph 1022.7mb 71f
12:50pm 5 7 mph 1023mb 70f
12:40pm  -  7 mph 1022.7mb 69f
12:30pm 1 6 mph 1022mb 70f
12:20pm 2 8 mph 1022.7mb 70f
12:10pm 2 9 mph 1023mb 70f
12:00pm 2 7 mph 1022.4mb 70f
11:54am 2 9 mph 1023mb 68f
11:50am 2 8 mph 1023mb 68f
11:40am 3 7 mph 1023mb 69f
11:30am 2 8 mph 1022.7mb 68f
11:20am 1 6 mph 1023.7mb 68f
11:10am 3 9 mph 1022.7mb 68f
11:00am 2 7 mph 1023.7mb 68f
10:54am 2 7 mph 1023mb 67f
10:50am 2 6 mph 1023mb 67f
10:40am 2 5 mph 1023.4mb 67f
10:30am 2 6 mph 1023.4mb 67f
10:20am 2 6 mph 1023.7mb 65f
10:10am 1 6 mph 1023mb 65f
10:00am 1 5 mph 1023.7mb 64f
9:50am 2 3 mph 1024mb 63f
9:40am 2 6 mph 1023.4mb 62f
9:30am 1 3 mph 1024.4mb 62f
9:20am  -  3 mph 1024mb 62f
9:00am  -  2 mph 1024.7mb 62f
8:53am  -  2 mph 1024.7mb 62f
8:50am  -  1 mph 1024.7mb 62f
8:40am  -  2 mph 1024mb 62f
8:30am  -  2 mph 1024mb 61f
8:20am  -  1 mph 1024.7mb 61f
8:10am  -  2 mph 1024mb 61f
8:00am  -  2 mph 1023.7mb 60f
7:53am  -  5 mph 1024.4mb 60f
7:50am  -  3 mph 1024mb 60f
7:40am  -  5 mph 1024mb 60f
7:30am  -  2 mph 1024mb 59f
7:20am  -  3 mph 1023.7mb 58f
7:10am  -  2 mph 1023.4mb 57f
7:00am  -  3 mph 1023.4mb 57f
6:52am  -  5 mph 1023mb 56f
6:50am  -  5 mph 1023.7mb 56f
6:40am 1 3 mph 1023.7mb 56f
6:30am  -  2 mph 1023.4mb 56f
6:20am  -  2 mph 1022.7mb 55f
6:10am  -  2 mph 1022.4mb 56f
6:00am  -  3 mph 1023mb 56f
5:52am  -  5 mph 1022mb 56f
5:50am  -  2 mph 1023mb 56f
5:40am  -  2 mph 1022.4mb 56f
5:30am 1 3 mph 1022mb 56f
5:20am 1 3 mph 1022mb 56f
5:10am 1 5 mph 1022.4mb 56f
5:00am 1 2 mph 1022.7mb 56f
4:51am 1 3 mph 1022mb 56f
4:50am 1 3 mph 1022.7mb 56f
4:40am  -  3 mph 1022.4mb 56f
4:30am  -  1 mph 1021.7mb 56f
4:20am  -  1 mph 1022mb 57f
4:10am  -  2 mph 1022.7mb 57f
4:00am  -  2 mph 1022.4mb 57f
3:51am  -  3 mph 1022mb 57f
3:40am  -  3 mph 1021.7mb 57f
3:30am  -  2 mph 1022mb 58f
3:20am  -  1 mph 1022.4mb 58f
3:10am  -  2 mph 1021.7mb 59f
3:00am  -  2 mph 1021.7mb 60f
2:51am 1 6 mph 1022mb 61f
2:50am 1 3 mph 1022.4mb 61f
2:40am 1 2 mph 1021.3mb 62f
2:30am  -  2 mph 1021.7mb 63f
2:20am 2 6 mph 1022mb 64f
2:10am 2 6 mph 1021mb 64f
2:00am 3 5 mph 1022mb 64f
1:50am 3 9 mph 1021.7mb 64f
1:40am 5 7 mph 1021.3mb 64f
1:30am 3 8 mph 1022mb 64f
1:20am 5 6 mph 1022mb 64f
1:10am 6 9 mph 1021.3mb 64f
1:00am 7 9 mph 1022.4mb 64f
12:50am 6 8 mph 1022mb 64f
12:40am 5 7 mph 1021.7mb 64f
12:30am 3 7 mph 1022.4mb 64f
12:20am 5 8 mph 1022mb 64f
12:10am 3 5 mph 1021.3mb 62f
12:00am 2 3 mph 1022.4mb 62f
Wed 08/26 11:50pm 2 3 mph 1022.4mb 62f
11:49pm  -  7 mph 1022mb 62f
11:40pm  -  6 mph 1021.7mb 62f
11:30pm 1 6 mph 1022.4mb 62f
11:20pm 3 7 mph 1022.4mb 64f
11:10pm 3 7 mph 1021.7mb 64f
11:00pm 6 7 mph 1022.7mb 64f
10:50pm 5 8 mph 1022.4mb 64f
10:49pm 6 10 mph 1022.7mb 64f
10:40pm 6 10 mph 1022.4mb 64f
10:20pm 6 8 mph 1022mb 64f
10:10pm 6 10 mph 1022.4mb 64f
10:00pm 6 8 mph 1022.7mb 64f
9:50pm 6 9 mph 1022.4mb 64f
9:48pm 8 10 mph 1022.4mb 64f
9:40pm 7 9 mph 1022mb 64f
9:30pm 7 10 mph 1022.4mb 64f
9:20pm 7 10 mph 1022.7mb 64f
9:10pm 6 9 mph 1022mb 64f
9:00pm 8 10 mph 1021.7mb 64f
8:50pm 7 10 mph 1022.4mb 64f
8:48pm 5 13 mph 1021.7mb 64f
8:40pm 8 10 mph 1022.4mb 64f
8:30pm 7 10 mph 1021.7mb 64f
8:20pm 8 10 mph 1021.7mb 64f
8:10pm 7 9 mph 1022mb 64f
8:00pm 9 13 mph 1022mb 64f
7:50pm 8 11 mph 1021.3mb 64f
7:48pm 7 13 mph 1021.7mb 64f
7:40pm 9 11 mph 1022mb 64f
7:30pm 9 13 mph 1022mb 64f
7:20pm 7 11 mph 1021.3mb 64f
7:10pm 9 13 mph 1021.7mb 64f
7:00pm 10 13 mph 1022mb 64f
6:50pm 8 11 mph 1021.3mb 64f
6:47pm 8 15 mph 1022mb 64f
6:40pm 8 13 mph 1021.7mb 64f
6:30pm 10 15 mph 1022mb 64f
6:20pm 9 13 mph 1021.3mb 64f
6:10pm 9 13 mph 1021.7mb 64f
6:00pm 10 13 mph 1022mb 64f
5:50pm 8 13 mph 1021.3mb 64f
5:47pm 9 14 mph 1022mb 64f
5:40pm 10 13 mph 1022mb 64f
5:30pm 8 13 mph 1021.7mb 64f
5:20pm 9 13 mph 1021.3mb 64f
5:00pm 10 13 mph 1021.3mb 64f
4:50pm 9 13 mph 1022mb 64f
4:46pm 9 15 mph 1021.7mb 64f
4:40pm 9 13 mph 1021.7mb 64f
4:30pm 9 14 mph 1021.7mb 64f
4:20pm 9 15 mph 1021.7mb 64f
4:10pm 10 14 mph 1021.3mb 64f
4:00pm 9 14 mph 1021.7mb 64f
3:50pm 10 14 mph 1021.3mb 64f
3:46pm 9 14 mph 1022mb 64f
3:40pm 10 14 mph 1021.7mb 64f
3:30pm 11 13 mph 1021.3mb 64f
3:20pm 10 13 mph 1021.7mb 64f
3:10pm 10 14 mph 1021.7mb 64f
3:00pm 9 13 mph 1021.7mb 64f
2:50pm 10 14 mph 1022mb 64f
2:46pm 10 15 mph 1022mb 64f
2:40pm 11 15 mph 1021.7mb 65f
2:30pm 10 13 mph 1022mb 65f
2:20pm 9 13 mph 1021.3mb 65f
2:10pm 9 13 mph 1022mb 65f
2:00pm 9 11 mph 1021.3mb 65f
1:50pm 10 14 mph 1022mb 65f
1:45pm 10 15 mph 1021.7mb 64f
1:40pm 10 14 mph 1021.3mb 64f
1:30pm 11 13 mph 1022mb 64f
1:20pm 9 14 mph 1021.7mb 65f
1:10pm 11 15 mph 1021.7mb 65f
1:00pm 11 14 mph 1021.7mb 65f
12:50pm 10 15 mph 1021.7mb 64f
12:45pm 11 17 mph 1021.7mb 65f
12:40pm 11 15 mph 1021.7mb 65f
12:30pm 10 14 mph 1021.7mb 65f
12:20pm 13 15 mph 1021.7mb 64f
12:10pm 13 16 mph 1022mb 64f
12:00pm 13 16 mph 1021.3mb 64f
11:44am 10 17 mph 1022mb 64f
11:40am 11 15 mph 1021.7mb 64f
11:30am 13 16 mph 1021.7mb 64f
11:20am 11 15 mph 1022.4mb 64f
11:10am 10 15 mph 1021.3mb 64f
11:00am 13 15 mph 1021.7mb 64f
10:50am 13 17 mph 1022mb 64f
10:44am 13 17 mph 1021.7mb 64f
10:40am 13 16 mph 1021.7mb 64f
10:30am 14 17 mph 1021.3mb 64f
10:20am 10 15 mph 1022mb 64f
10:10am 10 16 mph 1021.3mb 64f
10:00am 13 15 mph 1021.3mb 64f
9:50am 11 16 mph 1021.7mb 64f
9:44am 13 18 mph 1021mb 63f
9:40am 11 16 mph 1021mb 63f
9:30am 13 17 mph 1021.3mb 63f
9:20am 14 18 mph 1021.7mb 63f
9:10am 11 15 mph 1021mb 63f
9:00am 10 15 mph 1021mb 63f
8:50am 13 15 mph 1021.3mb 63f
8:43am 13 17 mph 1020.7mb 63f
8:40am 14 17 mph 1021mb 63f
8:30am 13 17 mph 1020.3mb 62f
8:20am 13 16 mph 1021mb 62f
8:10am 10 13 mph 1021.3mb 62f
8:00am 8 13 mph 1020.7mb 61f
7:50am 2 10 mph 1020.3mb 61f
7:43am 7 16 mph 1021mb 61f
7:40am 9 14 mph 1021mb 61f
7:30am 10 15 mph 1020.7mb 62f
7:20am 11 15 mph 1020mb 62f
7:10am 13 16 mph 1020.7mb 62f
7:00am 11 15 mph 1020.3mb 63f
6:50am 14 16 mph 1019.6mb 63f
6:42am 11 17 mph 1020mb 62f
6:40am 11 15 mph 1020mb 62f
6:20am 13 16 mph 1019.3mb 63f
6:10am 11 14 mph 1019.6mb 63f
6:00am 5 7 mph 1019.6mb 63f
5:50am 7 9 mph 1019mb 63f
5:42am 8 11 mph 1019.3mb 63f
5:40am 6 9 mph 1019.6mb 63f
5:30am 5 8 mph 1019.3mb 63f
5:20am 5 8 mph 1018.6mb 63f
5:10am 6 9 mph 1019.3mb 63f
5:00am 6 10 mph 1019mb 63f
4:50am 7 11 mph 1018.6mb 63f
4:42am 8 13 mph 1019mb 64f
4:40am 7 13 mph 1019.3mb 64f
4:30am 8 10 mph 1018.6mb 64f
4:20am 6 9 mph 1018.6mb 63f
4:10am 7 10 mph 1019.3mb 63f
4:00am 7 10 mph 1018.3mb 63f
3:50am 8 10 mph 1018.6mb 63f
3:41am 8 13 mph 1018.6mb 63f
3:40am 8 10 mph 1019mb 63f
3:30am 6 10 mph 1018.3mb 63f
3:20am 8 11 mph 1018.6mb 63f
3:10am 9 11 mph 1019mb 63f
3:00am 7 11 mph 1017.9mb 63f
2:50am 9 14 mph 1018.6mb 63f
2:41am 11 15 mph 1018.6mb 63f
2:40am 11 15 mph 1018.6mb 63f
2:30am 9 14 mph 1017.9mb 63f
2:20am 10 13 mph 1018.6mb 63f
2:10am 9 11 mph 1018.3mb 63f
2:00am 9 14 mph 1018.3mb 63f
1:50am 8 13 mph 1019mb 63f
1:40am 10 16 mph 1019mb 63f
1:30am 9 13 mph 1018.6mb 63f
1:20am 8 11 mph 1018.6mb 64f
1:00am 11 16 mph 1018.6mb 64f
12:50am 10 15 mph 1019mb 64f
12:40am 9 15 mph 1018.3mb 64f
12:30am 10 13 mph 1018.3mb 64f
12:20am 10 13 mph 1019mb 64f
12:10am 10 13 mph 1019mb 64f
12:00am 9 13 mph 1018.3mb 64f
Tue 08/25 11:50pm 10 13 mph 1018.3mb 64f
11:40pm 9 15 mph 1019.3mb 64f
11:30pm 10 13 mph 1019mb 64f
11:20pm 9 14 mph 1018.3mb 64f
11:10pm 9 14 mph 1019mb 64f
11:00pm 10 14 mph 1018.6mb 64f
10:50pm 10 15 mph 1018.3mb 64f
10:40pm 10 14 mph 1019.3mb 64f
10:39pm 9 15 mph 1019mb 64f
10:30pm 10 14 mph 1018.3mb 64f
10:20pm 11 14 mph 1018.6mb 64f
10:10pm 11 14 mph 1019mb 64f
10:00pm 10 14 mph 1018.3mb 64f
9:50pm 11 15 mph 1019mb 64f
9:40pm 9 13 mph 1018.6mb 64f
9:39pm 10 13 mph 1019mb 64f
9:30pm 9 13 mph 1018.3mb 64f
9:20pm 6 13 mph 1019mb 64f
9:10pm 8 11 mph 1018.3mb 64f
9:00pm 8 13 mph 1018.3mb 64f
8:50pm 8 13 mph 1019mb 64f
8:40pm 9 13 mph 1017.9mb 63f
8:38pm 8 13 mph 1019mb 64f
8:30pm 8 11 mph 1018.6mb 64f
8:20pm 9 10 mph 1018.6mb 63f
8:10pm 8 11 mph 1017.6mb 63f
8:00pm 8 11 mph 1018.3mb 63f
7:40pm 8 11 mph 1017.3mb 63f
7:38pm 8 13 mph 1018.3mb 63f
7:30pm 7 13 mph 1018.3mb 63f
7:20pm 9 11 mph 1017.6mb 63f
7:10pm 8 11 mph 1017.6mb 63f
7:00pm 7 11 mph 1018.3mb 63f
6:50pm 8 11 mph 1017.9mb 63f
6:40pm 8 13 mph 1017.6mb 63f
6:38pm 8 13 mph 1018.3mb 62f
6:30pm 7 10 mph 1017.9mb 63f
6:20pm 7 10 mph 1017.9mb 63f
6:10pm 7 9 mph 1017.6mb 62f
6:00pm 8 9 mph 1017.6mb 63f
5:50pm 6 11 mph 1017.9mb 63f
5:40pm 7 9 mph 1017.6mb 63f
5:37pm 5 11 mph 1017.9mb 62f
5:30pm 7 9 mph 1017.3mb 63f
5:20pm 7 10 mph 1017.9mb 62f
5:10pm 8 11 mph 1017.9mb 62f
5:00pm 8 10 mph 1017.3mb 63f
4:50pm 6 11 mph 1017.9mb 62f
4:40pm 7 11 mph 1017.9mb 62f
4:37pm 9 14 mph 1017.9mb 62f
4:30pm 7 14 mph 1017.3mb 63f
4:20pm 7 13 mph 1017.9mb 62f
4:10pm 8 14 mph 1017.9mb 62f
4:00pm 8 14 mph 1017.3mb 63f
3:50pm 7 13 mph 1017.6mb 63f
3:40pm 9 14 mph 1017.9mb 62f
3:36pm 10 16 mph 1017.3mb 62f
3:30pm 11 15 mph 1017.3mb 62f
3:20pm 10 16 mph 1017.3mb 62f
3:10pm 9 14 mph 1017.6mb 62f
3:00pm 9 16 mph 1016.9mb 62f
2:50pm 9 14 mph 1017.3mb 62f
2:40pm 10 15 mph 1017.9mb 62f
2:36pm 9 15 mph 1016.9mb 62f
2:20pm 10 15 mph 1017.6mb 62f
2:10pm 11 15 mph 1017.9mb 62f
2:00pm 11 15 mph 1017.3mb 63f
1:50pm 11 15 mph 1017.6mb 62f
1:40pm 11 15 mph 1017.6mb 63f
1:36pm 10 17 mph 1017.9mb 63f
1:30pm 11 15 mph 1017.3mb 62f
1:20pm 10 14 mph 1017.6mb 62f
1:10pm 10 16 mph 1017.6mb 62f
1:00pm 10 14 mph 1017.3mb 62f
12:50pm 10 17 mph 1017.3mb 62f
12:40pm 13 15 mph 1017.6mb 62f
12:35pm 13 17 mph 1017.6mb 62f
12:30pm 10 17 mph 1017.3mb 62f
12:20pm 13 16 mph 1016.9mb 62f
12:10pm 10 16 mph 1017.6mb 62f
12:00pm 13 16 mph 1017.6mb 62f
11:50am 13 16 mph 1016.9mb 62f
11:40am 11 17 mph 1017.6mb 62f
11:35am 11 18 mph 1017.6mb 62f
11:30am 10 15 mph 1017.3mb 62f
11:20am 11 15 mph 1017.3mb 62f
11:10am 13 17 mph 1017.6mb 62f
11:00am 14 18 mph 1016.9mb 62f
10:50am 14 17 mph 1017.3mb 62f
10:40am 14 16 mph 1017.3mb 62f
10:34am 13 22 mph 1016.9mb 62f
10:30am 11 16 mph 1016.6mb 62f
10:20am 11 15 mph 1017.3mb 62f
10:10am 11 16 mph 1016.6mb 62f
10:00am 11 22 mph 1016.6mb 62f
9:50am 11 16 mph 1016.9mb 62f
9:40am 11 21 mph 1015.9mb 62f
9:34am 11 21 mph 1015.9mb 62f
9:30am 14 16 mph 1016.6mb 62f
9:20am 15 17 mph 1016.6mb 62f
9:00am 15 20 mph 1016.6mb 62f
8:50am 15 20 mph 1015.9mb 62f
8:40am 16 20 mph 1015.9mb 62f
8:34am 14 21 mph 1016.3mb 62f
8:30am 14 17 mph 1016.3mb 62f
8:20am 14 21 mph 1015.6mb 62f
8:10am 16 18 mph 1015.9mb 62f
8:00am 15 20 mph 1016.6mb 62f
7:50am 15 20 mph 1015.2mb 63f
7:40am 15 22 mph 1015.9mb 63f
7:33am 15 22 mph 1015.2mb 63f
7:30am 16 20 mph 1015.9mb 63f
7:20am 15 21 mph 1015.2mb 63f
7:10am 17 22 mph 1015.9mb 63f
7:00am 16 21 mph 1015.6mb 63f
6:50am 15 22 mph 1014.9mb 63f
6:40am 17 20 mph 1015.6mb 63f
6:33am 15 22 mph 1014.9mb 63f
6:30am 16 20 mph 1015.2mb 63f
6:20am 15 21 mph 1014.9mb 63f
6:10am 15 18 mph 1015.6mb 63f
6:00am 15 21 mph 1014.9mb 63f
5:50am 14 20 mph 1015.2mb 63f
5:40am 15 22 mph 1015.2mb 63f
5:32am 16 22 mph 1014.6mb 63f
5:30am 15 20 mph 1014.6mb 63f
5:20am 15 20 mph 1015.2mb 63f
5:10am 16 20 mph 1014.9mb 63f
5:00am 15 20 mph 1014.6mb 64f
4:50am 14 22 mph 1015.2mb 63f
4:40am 16 22 mph 1014.6mb 63f
4:32am 15 22 mph 1014.9mb 63f
4:30am 16 22 mph 1014.6mb 63f
4:20am 16 21 mph 1014.9mb 63f
4:10am 16 20 mph 1014.2mb 63f
4:00am 16 21 mph 1014.9mb 63f
3:40am 14 18 mph 1013.9mb 63f
3:32am 13 22 mph 1013.9mb 63f
3:30am 16 21 mph 1014.6mb 63f
3:20am 14 21 mph 1014.6mb 63f
3:10am 16 22 mph 1014.2mb 63f
3:00am 17 21 mph 1014.6mb 64f
2:50am 15 21 mph 1014.9mb 64f
2:40am 17 22 mph 1014.6mb 63f
2:31am 18 24 mph 1014.6mb 64f
2:30am 18 23 mph 1014.2mb 64f
2:20am 18 22 mph 1014.6mb 64f
2:10am 18 23 mph 1014.9mb 63f
2:00am 17 24 mph 1014.6mb 63f
1:50am 17 24 mph 1014.2mb 63f
1:40am 15 21 mph 1014.6mb 63f
1:31am 16 25 mph 1014.9mb 63f
1:30am 16 20 mph 1015.2mb 63f
1:20am 17 22 mph 1014.9mb 63f
1:10am 16 25 mph 1014.6mb 63f
1:00am 17 23 mph 1015.2mb 63f
12:50am 17 24 mph 1015.2mb 63f
12:40am 18 23 mph 1014.9mb 64f
12:30am 16 25 mph 1015.2mb 64f
12:20am 18 24 mph 1015.6mb 64f
12:10am 18 24 mph 1015.2mb 63f
12:00am 16 22 mph 1014.6mb 64f
Mon 08/24 11:50pm 16 24 mph 1015.2mb 64f
11:40pm 17 25 mph 1015.2mb 63f
11:30pm 16 24 mph 1014.9mb 64f
11:20pm 20 25 mph 1015.2mb 64f
11:10pm 18 25 mph 1015.6mb 64f
11:00pm 18 23 mph 1014.6mb 64f
10:50pm 18 25 mph 1014.9mb 64f
10:40pm 18 24 mph 1015.6mb 64f
10:30pm 21 25 mph 1015.6mb 64f
10:29pm 18 29 mph 1014.9mb 64f
10:20pm 18 29 mph 1015.2mb 64f
10:10pm 18 24 mph 1015.6mb 64f
10:00pm 18 25 mph 1014.9mb 65f
9:50pm 17 26 mph 1015.6mb 65f
9:40pm 21 28 mph 1015.6mb 65f
9:30pm 17 24 mph 1014.9mb 65f
9:29pm 18
mph
1014.9mb 65f
9:20pm 17 24 mph 1015.9mb 65f
9:10pm 21 29 mph 1014.9mb 65f
9:00pm 18 26 mph 1015.2mb 65f
8:50pm 20 28 mph 1014.9mb 66f
8:40pm 20 25 mph 1014.9mb 66f
8:30pm 20 28 mph 1014.9mb 66f
8:29pm 22 28 mph 1014.6mb 66f
8:20pm 21 26 mph 1014.6mb 66f
8:10pm 22 25 mph 1014.9mb 66f
8:00pm 21 25 mph 1014.2mb 66f
7:50pm 20 23 mph 1014.9mb 66f
7:40pm 17 24 mph 1013.9mb 66f
7:30pm 18 22 mph 1014.6mb 66f
7:28pm 18 24 mph 1013.9mb 66f
7:20pm 18 21 mph 1013.9mb 66f
7:10pm 18 21 mph 1014.6mb 66f
7:00pm 17 24 mph 1013.5mb 67f
6:50pm 16 21 mph 1014.2mb 67f
6:40pm 15 20 mph 1013.5mb 67f
6:30pm 15 20 mph 1013.9mb 67f
6:28pm 15 22 mph 1013.5mb 67f
6:20pm 16 20 mph 1013.5mb 67f
6:10pm 16 20 mph 1013.5mb 68f
6:00pm 16 20 mph 1013.5mb 68f
5:50pm 15 20 mph 1013.5mb 69f
5:40pm 16 22 mph 1012.9mb 69f
5:30pm 15 22 mph 1013.5mb 69f
5:27pm 17 23 mph 1013.2mb 69f
5:20pm 17 22 mph 1012.9mb 70f
5:00pm 16 22 mph 1013.2mb 70f
4:50pm 15 21 mph 1013.2mb 70f
4:40pm 15 22 mph 1013.5mb 70f
4:30pm 18 22 mph 1012.9mb 71f
4:27pm 17 25 mph 1012.9mb 71f
4:20pm 18 22 mph 1013.2mb 71f
4:10pm 17 21 mph 1013.5mb 71f
4:00pm 18 23 mph 1012.5mb 71f
3:50pm 20 23 mph 1013.2mb 71f
3:40pm 18 25 mph 1013.5mb 71f
3:30pm 17 24 mph 1012.9mb 71f
3:27pm 21 26 mph 1013.2mb 71f
3:20pm 22 26 mph 1013.2mb 71f
3:10pm 18 26 mph 1013.5mb 71f
3:00pm 22 25 mph 1012.5mb 71f
2:50pm 23 30 mph 1012.9mb 71f
2:40pm 21 28 mph 1013.2mb 71f
2:30pm 22 26 mph 1012.5mb 71f
2:26pm 22
mph
1013.2mb 71f
2:20pm 22 28 mph 1013.2mb 71f
2:10pm 24 30 mph 1013.2mb 71f
2:00pm 24 29 mph 1012.5mb 71f
1:50pm 22 30 mph 1013.2mb 71f
1:45pm 23 30 mph 1012.5mb 71f
1:40pm 26 31 mph 1012.9mb 70f
1:30pm 25 31 mph 1013.2mb 70f
1:26pm 23
mph
1013.2mb 70f
1:20pm 23 30 mph 1012.9mb 70f
1:10pm 24 30 mph 1012.9mb 70f
1:00pm 26 31 mph 1013.5mb 70f
12:50pm 23 31 mph 1012.9mb 69f
12:45pm 22 29 mph 1012.5mb 69f
12:40pm 24 28 mph 1013.5mb 69f
12:30pm 23 29 mph 1013.2mb 69f
12:25pm 23 29 mph 1013.9mb 69f
12:20pm 22 29 mph 1013.9mb 69f
12:10pm 23 29 mph 1013.5mb 69f
12:00pm 22 28 mph 1013.5mb 69f
11:40am 24 28 mph 1013.5mb 69f
11:30am 22 29 mph 1014.2mb 69f
11:25am 22 29 mph 1014.2mb 68f
11:20am 23 28 mph 1013.5mb 68f
11:10am 22 25 mph 1014.6mb 68f
11:00am 21 25 mph 1013.9mb 68f
10:50am 21 23 mph 1014.6mb 68f